Location: Ulm
(48.3980°N, 9.9777°E)
Time: 12:16:11
(UTC+01:00)

ISS - Pass Details

Date: 10 January 2018
Orbit: 402 x 407 km, 51.6° (Epoch: 18 January)

Event Time Altitude Azimuth Distance (km) Brightness Sun altitude
Exits shadow 04:58:42 12° 75° (ENE) 1,365 -0.4 -30.8°
Drops below altitude 10° 04:58:58 10° 77° (ENE) 1,468 -0.2 -30.8°
Sets 05:01:07 0° 83° (E) 2,329 1.2 -30.4°
